Location: Passau
(48.5830°N, 13.4830°E)
Time: 05:26:59
(UTC+02:00)

Vanguard 1 - Pass Details

Date: 04 August 2021
Orbit: 652 x 3831 km, 34.3° (Epoch: 16 September)

Event Time Altitude Azimuth Distance (km) Brightness Sun altitude
Rises 13:54:33 0° 249° (WSW) 3,287 13.1 57.4°
Reaches altitude 10° 13:57:08 10° 233° (SW) 2,581 12.8 57.2°
Maximum altitude 14:01:50 23° 182° (S) 2,254 12.9 56.9°
Drops below altitude 10° 14:08:39 10° 135° (SE) 3,889 13.4 56.5°
Sets 14:13:42 0° 124° (ESE) 5,486 13.9 56.1°
